Location: ?????????
(55.6553°N, 38.9075°E)
Time: 14:11:14
(UTC+00:00)

Cosmos 1674 - Pass Details

Date: 18 October 2019
Orbit: 496 x 518 km, 82.5° (Epoch: 11 November)

Event Time Altitude Azimuth Distance (km) Brightness Sun altitude
Rises 02:50:43 0° 178° (S) 2,576 6.3 -10.5°
Reaches altitude 10° 02:52:50 10° 174° (S) 1,697 5.4 -10.2°
Maximum altitude 02:56:28 55° 97° (E) 609 3.5 -9.7°
Drops below altitude 10° 03:00:08 10° 19° (NNE) 1,714 5.6 -9.2°
Sets 03:02:17 0° 15° (NNE) 2,605 6.4 -8.9°
